Bergen Op Zoom, Netherlands

10:20 AM CET on February 22, 2017 (GMT +0100)
Woensdrecht Air Base

Weather History for EHWO - May, 2014

Change the Weather History Date:

Sunday, May 4, 2014

  Actual Average Record
Temperature  
Mean Temperature 43 °F -  
Max Temperature 58 °F 63 °F 78 °F (2006)
Min Temperature 28 °F 47 °F 28 °F (2014)
Degree Days  
Heating Degree Days 22    
Moisture  
Dew Point 36 °F    
Average Humidity 70    
Maximum Humidity 100    
Minimum Humidity 34    
Precipitation  
Precipitation 0.00 in - - ()
Sea Level Pressure  
Sea Level Pressure 30.24 in    
Wind  
Wind Speed 2 mph ()    
Max Wind Speed 9 mph    
Max Gust Speed -    
Visibility 8.4 miles    
Events      
Averages and records for this station are not official NWS values.
T = Trace of Precipitation, MM = Missing Value Source: Averaged Metar Reports

Daily Weather History Graph

Daily Weather History Graph

Search for Another Location

Airport or City:

Trip Planner

Search our weather history database for the weather conditions in past years. The results will help you decide how hot, cold, wet, or windy it might be!

Date:

Astronomy

May. 04, 2014 Rise Set
Actual Time 6:09 AM CEST 9:10 PM CEST
Civil Twilight 5:30 AM CEST 9:49 PM CEST
Nautical Twilight 4:40 AM CEST 10:40 PM CEST
Astronomical Twilight 3:36 AM CEST 11:45 PM CEST
Moon 10:15 AM CEST (5/4) 1:08 AM CEST (5/4)
Length of Visible Light 16h 18m
Length of Day
15h 00m
Waxing Crescent, 25% of the Moon is Illuminated
May 4
Waxing Crescent
May 7
First Quarter
May 14
Full
May 21
Last Quarter
May 28
New

Hourly Weather History & Observations

Time (CEST) Temp. Windchill Dew Point Humidity Pressure Visibility Wind Dir Wind Speed Gust Speed Precip Events Conditions
12:00 AM 38 °F - 36 °F 87% 30.32 in 22 mi NE 2.2 mph - -  
12:25 AM 35.6 °F - 33.8 °F 93% 30.30 in 6.2 mi ENE 1.2 mph - N/A   Unknown
12:55 AM 35.6 °F - 33.8 °F 93% 30.30 in 6.2 mi NNW 1.2 mph - N/A   Unknown
1:00 AM 35 °F - 34 °F 92% 30.32 in 19 mi Calm Calm - -  
1:25 AM 35.6 °F - 33.8 °F 93% 30.30 in 6.2 mi Calm Calm - N/A   Unknown
1:55 AM 33.8 °F - 33.8 °F 100% 30.30 in 6.2 mi Calm Calm - N/A   Unknown
2:00 AM 34 °F - 33 °F 93% 30.31 in 12 mi Calm Calm - -   Partly Cloudy
2:25 AM 33.8 °F - 32.0 °F 93% 30.30 in 6.2 mi Calm Calm - N/A   Unknown
2:55 AM 32.0 °F - 32.0 °F 100% 30.30 in 6.2 mi Calm Calm - N/A   Unknown
3:00 AM 33 °F - 32 °F 94% 30.31 in 9 mi Calm Calm - -  
3:25 AM 32.0 °F - 30.2 °F 93% 30.30 in 6.2 mi East 1.2 mph - N/A   Unknown
3:55 AM 30.2 °F - 30.2 °F 100% 30.27 in 6.2 mi East 1.2 mph - N/A   Unknown
4:00 AM 31 °F - 30 °F 93% 30.30 in 9 mi NE 2.2 mph - -  
4:25 AM 30.2 °F - 30.2 °F 100% 30.27 in 6.2 mi ENE 1.2 mph - N/A   Unknown
4:55 AM 30.2 °F - 30.2 °F 100% 30.27 in 6.2 mi Calm Calm - N/A   Unknown
5:00 AM 30 °F - 30 °F 98% 30.29 in 5 mi Calm Calm - -   Mist
5:25 AM 30.2 °F - 28.4 °F 93% 30.27 in 3.1 mi Calm Calm - N/A   Mist
5:30 AM 28.4 °F - 28.4 °F 100% 30.27 in 5.0 mi Calm Calm - N/A   Mist
5:34 AM 30.2 °F - 28.4 °F 93% 30.27 in 3.1 mi Calm Calm - N/A   Mist
5:39 AM 28.4 °F - 28.4 °F 100% 30.27 in 5.0 mi Calm Calm - N/A   Mist
5:55 AM 30.2 °F - 28.4 °F 93% 30.27 in 6.2 mi ENE 1.2 mph - N/A   Unknown
6:00 AM 30 °F - 29 °F 94% 30.29 in 6 mi ENE 2.2 mph - -   Mist
6:25 AM 30.2 °F - 30.2 °F 100% 30.27 in 6.2 mi East 1.2 mph - N/A   Unknown
6:55 AM 30.2 °F - 30.2 °F 100% 30.27 in 6.2 mi NE 1.2 mph - N/A   Unknown
7:00 AM 30 °F - 29 °F 97% 30.29 in 8 mi ENE 2.2 mph - -  
7:25 AM 32.0 °F - 30.2 °F 93% 30.27 in 6.2 mi East 1.2 mph - N/A   Unknown
7:55 AM 39.2 °F 37.0 °F 35.6 °F 87% 30.27 in 5.6 mi East 3.5 mph - N/A   Mist
8:00 AM 41 °F - 39 °F 89% 30.29 in 6 mi ENE 2.2 mph - -   Mist
8:25 AM 44.6 °F - 39.2 °F 81% 30.27 in 6.2 mi ENE 2.3 mph - N/A   Unknown
8:55 AM 46.4 °F 44.3 °F 37.4 °F 71% 30.27 in 6.2 mi East 4.6 mph - N/A   Unknown
9:00 AM 47 °F - 36 °F 56% 30.29 in 22 mi East 4.5 mph - -  
9:25 AM 48.2 °F - 35.6 °F 62% 30.27 in 6.2 mi East 4.6 mph - N/A   Partly Cloudy
9:55 AM 50.0 °F - 37.4 °F 62% 30.27 in 6.2 mi NE 2.3 mph - N/A   Partly Cloudy
10:00 AM 50 °F - 35 °F 44% 30.29 in 19 mi NE 4.5 mph - -   Scattered Clouds
10:25 AM 50.0 °F - 35.6 °F 58% 30.27 in 6.2 mi North 3.5 mph - N/A   Scattered Clouds
10:55 AM 50.0 °F - 35.6 °F 58% 30.27 in 6.2 mi South 1.2 mph - N/A   Unknown
11:00 AM 51 °F - 36 °F 45% 30.28 in 19 mi SE 2.2 mph - -   Scattered Clouds
11:25 AM 51.8 °F - 37.4 °F 58% 30.27 in 6.2 mi WSW 3.5 mph - N/A   Mostly Cloudy
11:55 AM 53.6 °F - 35.6 °F 51% 30.27 in 6.2 mi West 3.5 mph - N/A   Partly Cloudy
12:00 PM 55 °F - 37 °F 38% 30.27 in 19 mi 2.2 mph - -   Scattered Clouds
12:25 PM 53.6 °F - 35.6 °F 51% 30.24 in 6.2 mi WSW 5.8 mph - N/A   Partly Cloudy
12:55 PM 53.6 °F - 37.4 °F 54% 30.24 in 6.2 mi West 8.1 mph - N/A   Partly Cloudy
1:00 PM 55 °F - 37 °F 39% 30.26 in 15 mi SW 4.5 mph - -   Mostly Cloudy
1:25 PM 55.4 °F - 37.4 °F 51% 30.24 in 6.2 mi WSW 9.2 mph - N/A   Partly Cloudy
1:55 PM 55.4 °F - 37.4 °F 51% 30.24 in 6.2 mi SW 5.8 mph - N/A   Partly Cloudy
2:00 PM 56 °F - 37 °F 37% 30.24 in 17 mi SSW 4.5 mph - -   Partly Cloudy
2:25 PM 57.2 °F - 37.4 °F 48% 30.21 in 6.2 mi West 4.6 mph - N/A   Partly Cloudy
2:55 PM 57.2 °F - 37.4 °F 48% 30.21 in 6.2 mi West 5.8 mph - N/A   Mostly Cloudy
3:00 PM 56 °F - 36 °F 36% 30.22 in 19 mi West 4.5 mph - -   Partly Cloudy
3:25 PM 57.2 °F - 37.4 °F 48% 30.21 in 6.2 mi West 6.9 mph - N/A   Scattered Clouds
3:55 PM 57.2 °F - 37.4 °F 48% 30.21 in 6.2 mi WNW 4.6 mph - N/A   Overcast
4:00 PM 57 °F - 37 °F 35% 30.22 in 18 mi West 6.7 mph - -   Mostly Cloudy
4:25 PM 57.2 °F - 35.6 °F 44% 30.18 in 6.2 mi WNW 5.8 mph - N/A   Mostly Cloudy
4:55 PM 57.2 °F - 37.4 °F 48% 30.18 in 6.2 mi WNW 4.6 mph - N/A   Scattered Clouds
5:00 PM 57 °F - 37 °F 35% 30.20 in 16 mi WNW 6.7 mph - -   Partly Cloudy
5:25 PM 57.2 °F - 37.4 °F 48% 30.18 in 6.2 mi WNW 6.9 mph - N/A   Mostly Cloudy
5:55 PM 57.2 °F - 37.4 °F 48% 30.18 in 6.2 mi WNW 6.9 mph - N/A   Scattered Clouds
6:00 PM 57 °F - 37 °F 36% 30.19 in 19 mi WNW 6.7 mph - -   Scattered Clouds
6:25 PM 57.2 °F - 39.2 °F 51% 30.18 in 6.2 mi West 8.1 mph - N/A   Mostly Cloudy
6:55 PM 57.2 °F - 35.6 °F 44% 30.15 in 6.2 mi North 4.6 mph - N/A   Partly Cloudy
7:00 PM 57 °F - 36 °F 34% 30.18 in 22 mi NNE 4.5 mph - -   Scattered Clouds
7:25 PM 57.2 °F - 41.0 °F 55% 30.15 in 6.2 mi North 8.1 mph - N/A   Mostly Cloudy
7:55 PM 55.4 °F - 41.0 °F 58% 30.15 in 6.2 mi North 8.1 mph - N/A   Partly Cloudy
8:00 PM 55 °F - 40 °F 46% 30.17 in 19 mi North 6.7 mph - -   Partly Cloudy
8:25 PM 53.6 °F - 41.0 °F 62% 30.15 in 6.2 mi North 8.1 mph - N/A   Unknown
8:55 PM 51.8 °F - 41.0 °F 67% 30.15 in 6.2 mi North 4.6 mph - N/A   Unknown
9:00 PM 51 °F - 40 °F 57% 30.16 in 22 mi North 4.5 mph - -   Scattered Clouds
9:25 PM 48.2 °F - 41.0 °F 76% 30.15 in 6.2 mi North 4.6 mph - N/A   Unknown
9:55 PM 46.4 °F - 41.0 °F 81% 30.15 in 6.2 mi NNE 2.3 mph - N/A   Overcast
10:00 PM 47 °F - 42 °F 75% 30.17 in 19 mi NE 2.2 mph - -   Mostly Cloudy
10:25 PM 46.4 °F - 41.0 °F 81% 30.15 in 6.2 mi East 1.2 mph - N/A   Overcast
10:55 PM 46.4 °F 45.2 °F 41.0 °F 81% 30.15 in 6.2 mi East 3.5 mph - N/A   Overcast
11:00 PM 46 °F - 41 °F 77% 30.16 in 16 mi East 4.5 mph - -   Overcast
11:25 PM 44.6 °F - 41.0 °F 87% 30.12 in 6.2 mi East 2.3 mph - N/A   Overcast
11:55 PM 42.8 °F - 39.2 °F 87% 30.12 in 6.2 mi ENE 2.3 mph - N/A   Unknown